Terminal Aerodrome Forecast
Issued by NWS Atlanta, GA

Current Version | Previous Version | Text Only | Print | Product List | Glossary On
Versions: 1 2 3 4 5 6 7 8 9 10 11 12 13 14 15 16 17 18 19 20 21 22 23 24 25 26 27 28 29 30 31 32 33 34 35 36 37 38 39 40 41 42
182
FTUS42 KFFC 312324
TAFATL
TAF
KATL 312324Z 0100/0206 14006KT P6SM SCT060
     FM010100 08004KT P6SM SCT100
     FM011400 15005KT P6SM FEW040
     FM011600 22006KT P6SM SCT050 PROB30 0120/0124 6SM TSRA BKN040CB
     FM020000 20005KT P6SM SCT100=

USA.gov is the U.S. government's official web portal to all federal, state and local government web resources and services.